Location: Newark
(43.4306°N, 0.3089°E)
Time: 22:52:42
(UTC+00:00)

S-56A Canister/Altair - Pass Details

Date: 22 August 2019
Orbit: 633 x 2499 km, 38.9° (Epoch: 22 October)

Event Time Altitude Azimuth Distance (km) Brightness Sun altitude
Rises 02:46:25 0° 269° (W) 3,151 - -23.2°
Reaches altitude 10° 02:49:09 10° 252° (WSW) 2,392 - -22.8°
Maximum altitude 02:53:09 20° 205° (SSW) 2,047 - -22.3°
Exits shadow 02:56:47 14° 169° (S) 2,709 10.0 -21.8°
Drops below altitude 10° 02:58:10 10° 161° (SSE) 3,098 10.4 -21.6°
Sets 03:02:23 0° 147° (SSE) 4,433 11.3 -21.1°
